{"data":{"norad_id":58087,"epoch":"2026-09-20T17:39:16.419744Z","epoch_age_seconds":120059,"freshness":"FRESH","line1":"1 58087U 23160N   26263.73560671 -.00000167  00000+0  34559-5 0  9999","line2":"2 58087  43.0035  59.9356 0000775 278.8804  81.1959 15.27575095162736","mean_motion":15.27575095,"eccentricity":7.75e-5,"inclination_deg":43.0035,"raan_deg":59.9356,"arg_perigee_deg":278.8804,"mean_anomaly_deg":81.1959,"bstar":3.4559e-6,"rev_number":16273,"period_min":94.267051401489,"perigee_km":482.5320403528,"apogee_km":483.59552647423,"semimajor_km":6861.2007834135,"source":"CELESTRAK","updated_at":"2026-09-21T09:00:33.783807Z"}}